Wind_Speed
19 29 34 30 29 29 28 24 21 21 21 23 22 20 19 20 19 16 13 10 7 7 8 9 12 14 17 17 19 18 16 13 12
15 18 22 29 33 32 28 25 22 18 20 21 25 22 24 23 23 21 18 15 12 12 13 15 16 17 17 18 18 19 16 15 14
17 23 23 25 27 34 33 26 23 21 18 19 20 26 27 26 26 25 24 22 21 17 17 17 18 19 18 19 19 18 17 16 15
22 22 23 27 23 24 24 24 25 22 23 22 22 21 23 27 30 31 29 26 26 27 20 27 20 22 21 20 19 19 16 15 15
20 22 23 29 22 21 25 25 25 27 25 25 22 22 24 25 28 37 29 36 26 32 29 20 24 25 24 23 23 19 15 14 14
19 15 22 26 23 24 26 27 28 28 29 27 22 24 24 27 30 34 40 38 42 39 30 24 23 26 27 26 25 21 16 15 14
19 21 22 29 22 21 24 26 27 27 27 23 21 21 22 26 29 32 40 43 44 48 43 38 29 29 27 29 28 22 17 16 17
19 25 23 28 17 16 23 26 27 24 24 20 18 19 19 20 30 38 41 45 50 57 53 40 36 38 29 30 27 22 19 19 20
25 23 21 27 21 17 22 24 26 25 23 22 21 20 19 22 26 28 32 41 49 46 47 26 27 37 31 27 25 23 23 22 24
28 24 25 26 23 22 25 22 24 23 24 28 28 28 29 30 31 29 27 30 31 37 33 33 20 34 28 30 25 24 28 27 28
25 25 28 29 23 28 23 25 25 28 30 30 30 29 29 30 32 32 31 32 31 29 25 32 20 30 27 26 28 28 32 32 31
26 24 30 31 27 27 27 26 27 26 25 21 15 11 12 16 21 24 24 28 28 23 20 21 21 30 32 33 32 35 39 30 36
26 27 29 34 25 29 29 29 28 25 20 15 10 9 17 24 24 22 25 28 29 24 22 22 29 35 32 30 33 37 35 39 40
16 24 30 33 28 32 30 27 22 24 20 15 18 25 26 26 26 27 27 27 27 21 22 23 29 31 31 36 36 38 39 41 41
13 13 24 26 29 30 26 23 24 22 16 23 27 34 39 30 26 23 23 24 19 16 17 23 27 29 33 37 35 27 35 43 45
28 32 30 29 21 18 15 11 16 21 28 32 38 35 33 33 27 22 18 10 13 16 20 23 29 33 31 30 30 33 32 28 29
26 26 27 24 17 16 20 26 31 33 32 40 34 28 25 20 20 19 18 14 8 9 15 25 32 24 19 28 35 31 25 27 26
21 19 18 21 22 25 30 33 31 29 30 25 28 19 16 16 16 13 17 12 8 9 11 14 22 22 22 25 25 23 24 24 24
19 20 22 25 29 25 24 26 23 25 25 19 15 9 7 6 8 10 11 9 11 11 13 19 23 26 28 25 20 21 23 24 25
26 25 22 22 21 20 21 20 20 17 15 13 11 11 11 11 12 14 13 13 14 15 15 14 15 19 20 20 22 22 24 27 29
Wind_Direction
263 247 235 225 217 215 210 203 203 204 208 206 204 203 197 196 198 202 203 208 245 279 299 312 319 327 334 339 341 330 329 323 320
239 231 235 231 223 221 221 219 220 221 221 216 218 220 212 211 213 218 226 234 256 282 292 296 303 309 319 329 328 324 319 316 320
243 239 231 228 223 229 228 229 224 219 218 220 226 230 229 230 229 229 234 244 255 258 275 286 295 300 308 318 313 313 311 313 319
254 254 239 220 219 220 225 226 228 223 224 226 229 232 239 246 247 239 238 248 280 265 262 288 284 297 300 304 297 299 304 308 311
259 255 219 217 216 214 211 203 211 217 229 234 233 239 244 250 255 246 246 252 256 260 265 269 271 289 289 293 290 289 294 295 304
258 230 204 199 205 210 211 215 215 219 220 223 227 244 253 256 257 260 255 264 249 242 255 255 267 284 278 283 284 279 283 284 291
264 219 206 202 201 212 214 219 221 222 226 230 243 257 265 271 271 266 260 260 251 248 254 249 252 271 266 272 274 270 271 280 285
254 227 217 209 191 211 218 216 212 226 237 240 247 264 271 284 270 265 262 261 263 258 281 280 254 253 249 260 266 267 265 272 280
233 222 230 212 202 213 215 221 225 229 236 247 256 259 263 257 258 262 267 264 264 274 270 296 250 250 239 251 259 258 266 271 281
223 225 213 211 219 218 213 207 216 228 233 241 250 255 254 255 265 271 276 274 271 275 280 302 272 238 240 252 245 255 266 273 281
218 228 214 219 223 218 220 217 218 225 237 251 258 263 265 266 269 272 277 279 281 283 294 298 243 235 241 241 238 245 255 256 262
216 218 222 224 223 216 213 217 225 233 248 250 253 272 298 298 296 293 293 285 280 288 282 271 254 234 230 234 237 246 254 266 267
207 219 236 235 220 208 214 221 230 237 226 223 233 262 296 307 297 291 293 283 286 291 266 260 258 241 224 231 241 251 266 272 288
206 225 234 231 223 212 217 213 221 220 222 230 292 306 313 314 311 302 300 295 290 291 281 271 260 236 227 235 244 259 265 278 284
191 196 186 194 209 204 205 210 211 218 252 284 295 308 304 296 294 286 292 297 284 277 278 250 242 230 239 252 261 276 279 271 284
169 176 187 183 187 199 210 239 257 278 284 293 292 287 286 286 282 282 294 297 298 295 288 261 244 242 251 265 265 273 273 271 272
165 170 181 197 212 230 252 266 272 276 282 278 284 283 281 277 276 276 268 278 298 285 290 264 249 254 268 266 270 262 269 272 272
173 189 202 224 246 261 271 274 276 284 283 280 280 274 259 267 276 272 277 275 260 281 285 284 258 253 283 276 260 262 266 271 278
205 219 240 252 267 278 280 277 280 284 283 274 252 244 252 242 240 250 264 258 258 271 278 266 261 262 270 263 272 278 285 288 291
232 239 249 255 268 281 283 288 284 276 269 247 237 234 236 234 229 229 237 245 255 267 263 256 253 256 268 283 285 287 292 289 292
Height
3151 3156 3159 3162 3165 3168 3170 3173 3176 3178 3180 3182 3184 3187 3189 3191 3193 3196 3197 3197 3198 3198 3198 3198 3197 3196 3195 3192 3188 3186 3184 3182 3180
3147 3149 3152 3155 3160 3162 3165 3169 3172 3174 3177 3178 3180 3183 3185 3187 3189 3191 3193 3194 3194 3194 3195 3195 3194 3193 3191 3189 3186 3184 3182 3179 3176
3142 3143 3147 3150 3153 3156 3161 3164 3168 3170 3172 3174 3177 3179 3182 3184 3185 3187 3188 3189 3190 3190 3191 3191 3191 3189 3187 3186 3184 3182 3179 3176 3174
3136 3137 3141 3144 3146 3151 3156 3160 3163 3165 3167 3169 3171 3175 3177 3179 3180 3182 3185 3186 3188 3188 3187 3189 3187 3186 3184 3183 3180 3177 3174 3173 3171
3130 3131 3133 3139 3143 3147 3150 3153 3157 3159 3162 3164 3168 3171 3172 3174 3175 3177 3180 3182 3181 3182 3182 3182 3183 3183 3181 3180 3177 3174 3170 3168 3167
3126 3126 3128 3133 3137 3140 3143 3147 3151 3154 3157 3159 3163 3165 3166 3168 3170 3171 3172 3168 3169 3173 3174 3173 3177 3177 3177 3175 3171 3168 3166 3163 3163
3122 3122 3124 3128 3132 3136 3139 3143 3146 3149 3152 3156 3158 3159 3160 3161 3164 3166 3164 3164 3163 3157 3160 3161 3165 3167 3167 3167 3165 3163 3161 3159 3159
3116 3118 3120 3124 3128 3132 3135 3138 3142 3145 3148 3151 3153 3153 3154 3155 3155 3154 3156 3156 3151 3146 3145 3148 3150 3154 3157 3158 3158 3157 3154 3153 3153
3111 3113 3117 3121 3124 3128 3131 3135 3138 3141 3143 3145 3145 3146 3147 3146 3144 3145 3145 3146 3144 3143 3143 3140 3140 3145 3147 3149 3150 3150 3149 3147 3147
3105 3109 3113 3117 3119 3123 3126 3129 3132 3134 3136 3135 3136 3137 3137 3137 3136 3136 3137 3136 3136 3134 3135 3129 3123 3134 3138 3140 3142 3143 3143 3141 3141
3100 3103 3107 3110 3113 3117 3120 3121 3123 3126 3128 3129 3130 3130 3130 3130 3130 3129 3128 3127 3126 3126 3124 3124 3121 3124 3130 3132 3133 3135 3134 3131 3130
3093 3097 3100 3103 3107 3109 3112 3115 3118 3120 3122 3123 3124 3125 3125 3125 3124 3123 3122 3118 3117 3118 3117 3117 3116 3118 3120 3122 3125 3126 3125 3127 3126
3086 3091 3094 3097 3100 3104 3107 3110 3112 3115 3115 3116 3117 3118 3118 3117 3117 3115 3114 3113 3111 3110 3111 3110 3110 3110 3112 3117 3118 3119 3121 3120 3116
3079 3083 3086 3090 3094 3098 3100 3103 3106 3107 3108 3109 3109 3110 3110 3109 3108 3107 3106 3105 3103 3102 3103 3104 3104 3106 3109 3109 3111 3112 3112 3109 3107
3071 3075 3081 3085 3088 3093 3095 3097 3098 3099 3101 3101 3101 3101 3103 3103 3100 3101 3099 3097 3096 3096 3097 3096 3099 3101 3102 3102 3103 3105 3103 3102 3101
3069 3074 3076 3082 3086 3088 3091 3092 3093 3094 3094 3094 3094 3093 3096 3094 3091 3092 3093 3093 3092 3092 3091 3091 3092 3094 3095 3096 3096 3095 3094 3093 3092
3068 3072 3074 3078 3083 3084 3085 3085 3085 3086 3086 3087 3086 3085 3087 3085 3085 3085 3084 3084 3084 3083 3083 3086 3085 3085 3087 3088 3088 3087 3086 3086 3084
3064 3068 3070 3074 3077 3078 3078 3078 3077 3078 3079 3080 3078 3077 3078 3078 3080 3079 3078 3078 3077 3076 3077 3078 3078 3079 3080 3079 3079 3079 3078 3077 3076
3061 3064 3067 3068 3070 3071 3072 3072 3072 3072 3071 3070 3070 3071 3072 3072 3073 3073 3072 3072 3072 3071 3071 3070 3073 3073 3074 3073 3072 3072 3071 3071 3070
3058 3060 3062 3062 3063 3064 3064 3065 3064 3063 3064 3065 3064 3065 3067 3067 3066 3067 3067 3068 3066 3064 3065 3065 3066 3068 3068 3068 3068 3066 3064 3063 3062